Regional Weather Roundup
Issued by NWS Sioux Falls, SD

Home | Current Version | Previous Version | Graphics & Text | Print | Product List | Glossary Off
Versions: 1 2 3 4 5 6 7 8 9 10 11 12 13 14 15 16 17 18 19 20 21 22 23 24 25 26 27 28 29 30 31 32 33 34 35 36 37 38 39 40 41 42 43 44 45 46 47 48 49 50

000
ASUS43 KFSD 302310
RWRFSD

WEATHER ROUNDUP FOR SE SOUTH DAKOTA/SW MINNESOTA/NW IOWA
NATIONAL WEATHER SERVICE SIOUX FALLS SD
600 PM CDT WED JUL 30 2014

NOTE: "FAIR" INDICATES FEW OR NO CLOUDS BELOW 12,000 FEET WITH NO
SIGNIFICANT WEATHER AND OR OBSTRUCTIONS TO VISIBILITY.


SDZ038>040-050-052>070-310000-
SOUTHEAST SOUTH DAKOTA

CITY           SKY/WX    TMP DP  RH WIND       PRES   REMARKS
CHAMBERLAIN    MOSUNNY   83  55  37 CALM      30.09S
HURON          SUNNY     82  52  35 VRB5      30.09F
MADISON        FAIR      75  55  50 N5        30.13S
MITCHELL       SUNNY     82  54  37 CALM      30.10F
SIOUX FALLS    MOSUNNY   79  53  40 CALM      30.11F
WINNER         CLOUDY    86  48  26 SE5       30.09F
YANKTON        SUNNY     79  54  41 SE5       30.11S
$$

MNZ071-072-080-081-089-090-097-098-310000-
SOUTHWEST MINNESOTA

CITY           SKY/WX    TMP DP  RH WIND       PRES   REMARKS
FAIRMONT       MOSUNNY   79  46  31 NW9       30.09S
JACKSON        SUNNY     75  52  43 NW5       30.12S
LUVERNE        SUNNY     79  50  36 W7        30.12S
MARSHALL       SUNNY     77  54  44 N8        30.09F
MONTEVIDEO     MOSUNNY   81  55  41 N8        30.09F
PIPESTONE      MOSUNNY   75  52  43 NW6       30.12F
REDWOOD FALLS  MOSUNNY   78  54  43 VRB5      30.08F
TRACY          SUNNY     77  54  45 NW5       30.11S
WINDOM         MOSUNNY   75  54  46 W7        30.11F
WORTHINGTON    MOSUNNY   75  54  46 N5        30.13F
$$

IAZ001>003-012>014-020>022-031-032-NEZ013-014-SDZ071-310000-
NORTHWEST IOWA

CITY           SKY/WX    TMP DP  RH WIND       PRES   REMARKS
CHEROKEE       SUNNY     77  56  47 N3        30.11S
DENISON        SUNNY     75  55  50 CALM      30.09F
ESTHERVILLE    CLOUDY    76  56  49 NW7       30.10S
LE MARS        SUNNY     77  54  44 CALM      30.11F
ORANGE CITY    MOSUNNY   77  52  41 W3        30.12S
SHELDON        SUNNY     77  55  47 VRB5      30.11S
SIOUX CITY     MOSUNNY   80  53  39 E6        30.10F
SPENCER        SUNNY     78  54  43 NW7       30.11S
STORM LAKE     SUNNY     75  57  53 CALM      30.12S
$$

ABBREVIATIONS USED IN REMARKS
   TC - TEMPERATURE IN CELSIUS
  WCI - WIND CHILL INDEX
   HX - HEAT INDEX
  VSB - VISIBILITY




USA.gov is the U.S. government's official web portal to all federal, state and local government web resources and services.